[[{"header":{"parameterUnit":"m.s-1","parameterCategory":1,"la1":30.2991,"la2":30.254,"lo1":-89.0895,"lo2":-89.0444,"dy":0.0017,"dx":0.0017,"nx":28,"ny":28,"refTime":"2023-10-23T21:00:00:Z","depth":0,"parameterNumber":2,"parameterNumberName":"U-component_of_WINDS"},"data":[0,0,0,0,0,0,0,0,0,0,0,0,0,0,0,0,0,0,0,0,0,0,0,0,0,0,0,0,0,0,0,0,0,0,0,0,0,0,0,0,0,0,0,0,0,0,0,0,0,0,0,0,0,0,0,0,0,0,-8.0003,-8.0003,0,-8.0023,-8.0023,-8.0023,-7.9901,-7.9898,-7.9894,-7.9891,-7.9909,-7.9913,-7.9916,0,0,0,0,0,0,0,0,0,0,0,0,0,-7.9861,-7.9864,-8.0003,-8.0003,-8.0004,-8.0023,-8.0023,-8.0023,-7.9902,-7.9898,-7.9894,-7.989,-7.9908,-7.9912,-7.9917,0,0,0,0,0,0,0,0,0,0,0,0,0,-7.9906,-7.9866,-8.0003,-7.9945,-7.994,-8.0023,-8.0023,-8.0023,-7.9903,-7.9898,-7.9892,-7.9888,-7.9907,-7.9912,-7.9917,-8.0055,0,0,-7.9934,-7.9937,0,0,0,0,0,0,0,0,-7.9904,-7.9911,-7.9954,-7.995,-7.9944,-7.9954,-7.9979,-8.0034,-7.9904,-7.9917,-7.9891,-7.9885,-7.9928,-7.9932,-7.9947,-8.0056,-8.0057,-7.9935,-7.9938,-7.9941,-7.9942,0,0,0,0,0,0,0,-7.9901,-7.991,-8.0011,-7.9954,-7.9949,-7.9919,-7.992,-7.9989,-7.9951,-7.9916,-7.9907,-7.9911,-7.9925,-7.9942,-7.9946,-8.0057,-7.9935,-7.994,-7.9943,-7.9945,-8.0283,-8.0288,0,0,0,0,0,0,-7.9905,-7.9908,-8.001,-8.0011,-7.9911,-7.9926,-7.9926,-7.9956,-7.995,-7.9944,-7.9915,-7.9905,-7.9935,-7.994,-7.9946,-8.0107,-7.9941,-7.9946,-7.9949,-8.0277,-8.0284,-8.029,0,0,0,0,0,0,-7.9903,-7.9916,-8.0009,-7.9957,-7.9967,-7.9934,-7.9968,-7.9959,-7.9976,-7.995,-7.9943,-7.9939,-7.9931,-7.9939,-8.003,-8.0106,-7.9948,-7.9953,-8.027,-8.0279,-8.0287,-8.0429,0,0,0,0,0,0,-7.9899,-7.9916,-7.9967,-7.996,-7.997,-8.0092,-7.9973,-7.9964,-7.9986,-7.9973,-7.9971,-7.9965,-7.9927,-8.0022,-8.0035,-8.011,-7.9958,-8.0263,-8.0274,-8.0284,-8.0417,-8.0441,-8.0462,0,0,0,0,0,-7.9895,-8.0005,-7.997,-7.9983,-8.0034,-8.0097,-8.0103,-8.0057,-7.9993,-8.0044,-8.0029,-7.9965,-8.0097,-8.0032,-8.0046,-8.0124,-8.0258,-8.0271,-8.0283,-8.0407,-8.0437,-8.0461,0,0,0,0,0,0,-8.0019,-8.0003,-7.9963,-8.0075,-8.0089,-8.0076,-8.0138,-8.009,-8.012,-8.0107,-8.0049,-8.005,-8.015,-8.0147,-8.0076,-8.0259,-8.0166,-8.0182,-8.0256,-8.0283,-8.0305,-8.0302,-7.9962,0,0,0,0,0,-8.0061,-8.0114,-8.0096,-8.0196,-8.0205,-8.0172,-8.0197,-8.0162,-8.0173,-8.0177,-8.0168,-8.0181,-8.0225,-8.0255,-8.0294,-8.0419,-8.0416,-8.048,-8.0502,-8.0521,-8.0533,-8.06,-8.0627,-8.0332,-8.0331,-8.0331,0,0,-8.0144,-8.0142,-8.0178,-8.0221,-8.0227,-8.0283,-8.0177,-8.024,-8.028,-8.0187,-8.0271,-8.0266,-8.0277,-8.0386,-8.0433,-8.0386,-8.0616,-8.0537,-8.0552,-8.0554,-8.0616,-8.0644,-8.0669,-8.034,-8.0339,-8.0337,0,0,-8.0325,-8.033,-8.0413,-8.0423,-8.0435,-8.0413,-8.0434,-8.0431,-8.0423,-8.0509,-8.044,-8.0489,-8.0566,-8.0577,-8.0592,-8.0785,-8.0728,-8.08,-8.0914,-8.098,-8.1003,-8.1023,-8.109,-8.1115,-8.0814,-8.0815,-8.0815,0,-8.0427,-8.0508,-8.0462,-8.0531,-8.0552,-8.0474,-8.0558,-8.057,-8.0594,-8.0611,-8.0559,-8.0656,-8.0658,-8.0768,-8.0816,-8.0832,-8.0853,-8.0797,-8.1003,-8.1023,-8.1041,-8.1104,-8.113,-8.0823,-8.0822,-8.0821,-8.082,0,-8.0633,-8.0691,-8.0758,-8.0784,-8.0814,-8.089,-8.0857,-8.0893,-8.0857,-8.0841,-8.093,-8.0931,-8.097,-8.0995,-8.0959,-8.1101,-8.1072,-8.1013,-8.0918,-8.1079,-8.1137,-8.1161,-8.0835,-8.0832,-8.083,-8.0827,0,0,-8.0884,-8.089,-8.0915,-8.0927,-8.0938,-8.0981,-8.1057,-8.1096,-8.1127,-8.1149,-8.1209,-8.128,-8.1227,-8.1245,-8.1212,-8.127,-8.1421,-8.1204,-8.1203,-8.1241,-8.1576,-8.1617,-8.1646,-8.1386,-8.1391,-8.1394,-8.1574,0,-8.1059,-8.1185,-8.1149,-8.1276,-8.1329,-8.126,-8.1325,-8.1339,-8.1328,-8.1372,-8.136,-8.141,-8.1337,-8.1348,-8.1403,-8.1391,-8.1487,-8.1378,-8.144,-8.1443,-8.1434,-8.1676,-8.1718,-8.1888,-8.1597,-8.1601,-8.1604,0,-8.1276,-8.1309,-8.1441,-8.1446,-8.1467,-8.1526,-8.1561,-8.1605,-8.1621,-8.1609,-8.1633,-8.1589,-8.1663,-8.1574,-8.1675,-8.1602,-8.1627,-8.1626,-8.1631,-8.1631,-8.1529,-8.1679,-8.1941,-8.1965,-8.164,-8.1637,-8.1634,0,-8.1443,-8.1521,-8.161,-8.1623,-8.1632,-8.1675,-8.1681,-8.1692,-8.1719,-8.1751,-8.1768,-8.1808,-8.1829,-8.1861,-8.183,-8.1768,-8.1936,-8.1844,-8.1927,-8.1928,-8.196,-8.1957,-8.2226,-8.1985,-8.1984,-8.1984,-8.1983,0,-8.1638,-8.1721,-8.1685,-8.174,-8.1832,-8.1792,-8.1885,-8.1882,-8.1894,-8.1947,-8.1892,-8.1943,-8.1901,-8.1949,-8.1926,-8.2013,-8.2024,-8.2016,-8.2007,-8.2018,-8.2018,-8.2029,-8.2014,-8.1991,-8.1989,-8.1988,-8.1987,0,-8.1837,-8.1816,-8.1909,-8.1912,-8.1915,-8.1982,-8.1984,-8.2035,-8.2024,-8.2092,-8.2106,-8.2087,-8.2141,-8.2116,-8.2172,-8.2156,-8.2268,-8.2247,-8.2262,-8.2255,-8.2338,-8.233,-8.2618,-8.2654,-8.2394,-8.2397,-8.2399,0,-8.1959,-8.2022,-8.2034,-8.2066,-8.2076,-8.2129,-8.2158,-8.2124,-8.2155,-8.2182,-8.223,-8.228,-8.2317,-8.2408,-8.2398,-8.2442,-8.2418,-8.2518,-8.2424,-8.2433,-8.2416,-8.2411,-8.2416,-8.2534,-8.2537,-8.2539,-8.2541,0,-8.2179,-8.2167,-8.2211,-8.2253,-8.2289,-8.232,-8.2346,-8.2376,-8.2344,-8.2383,-8.2439,-8.2469,-8.2528,-8.2578,-8.2618,-8.2623,-8.2577,-8.2572,-8.2593,-8.2601,-8.2606,-8.2602,-8.2308,-8.2564,-8.2561,-8.256,-8.2559,-8.2558,-8.234,-8.2393,-8.2411,-8.2462,-8.248,-8.2507,-8.2555,-8.2552,-8.2598,-8.2644,-8.2622,-8.2687,-8.2706,-8.2754,-8.2767,-8.2818,-8.2778,-8.2809,-8.2816,-8.2823,-8.2833,-8.2604,-8.2825,-8.2825,-8.2824,-8.2823,-8.2823,0,-8.2554,-8.2563,-8.2612,-8.2651,-8.2693,-8.2651,-8.2679,-8.2716,-8.2774,-8.2796,-8.2836,-8.2901,-8.2951,-8.2949,-8.2995,-8.3036,-8.3016,-8.3049,-8.3043,-8.3045,-8.2867,-8.2842,-8.3065,-8.3065,-8.3065,-8.3065,-8.3065,-8.3064,-8.2669,-8.2757,-8.2748,-8.2845,-8.2854,-8.2918,-8.2938,-8.2963,-8.298,-8.3056,-8.3098,-8.3098,-8.3111,-8.3159,-8.3203,-8.3202,-8.3219,-8.326,-8.325,-8.3082,-8.3057,-8.3034,-8.3011,-8.3265,-8.3265,-8.3423,-8.3425,-8.3426]},{"header":{"parameterUnit":"m.s-1","parameterCategory":1,"la1":30.2991,"la2":30.254,"lo1":-89.0895,"lo2":-89.0444,"dy":0.0017,"dx":0.0017,"nx":28,"ny":28,"refTime":"2023-10-23T21:00:00:Z","depth":0,"parameterNumber":3,"parameterNumberName":"V-component_of_WINDS"},"data":[0,0,0,0,0,0,0,0,0,0,0,0,0,0,0,0,0,0,0,0,0,0,0,0,0,0,0,0,0,0,0,0,0,0,0,0,0,0,0,0,0,0,0,0,0,0,0,0,0,0,0,0,0,0,0,0,0,0,1.3865,1.3866,0,1.3975,1.3976,1.3977,1.4115,1.4117,1.4119,1.4121,1.4228,1.4228,1.4229,0,0,0,0,0,0,0,0,0,0,0,0,0,1.3771,1.3772,1.3865,1.3867,1.3868,1.3975,1.3976,1.3978,1.4114,1.4117,1.412,1.4122,1.4227,1.4228,1.4229,0,0,0,0,0,0,0,0,0,0,0,0,0,1.3839,1.3773,1.3865,1.3949,1.3958,1.3974,1.3976,1.3978,1.4114,1.4117,1.412,1.4123,1.4227,1.4228,1.4229,1.4171,0,0,1.4233,1.4234,0,0,0,0,0,0,0,0,1.3835,1.3843,1.3935,1.3943,1.3953,1.4035,1.3982,1.4042,1.4113,1.4054,1.4121,1.4125,1.416,1.4167,1.418,1.4176,1.418,1.4233,1.4234,1.4234,1.4235,0,0,0,0,0,0,0,1.383,1.3839,1.3909,1.3937,1.3947,1.398,1.3994,1.3994,1.4087,1.406,1.407,1.4081,1.4166,1.4179,1.4184,1.4182,1.4233,1.4234,1.4235,1.4235,1.4137,1.4134,0,0,0,0,0,0,1.3814,1.3834,1.3905,1.3912,1.3901,1.3979,1.3994,1.4005,1.4088,1.4104,1.4078,1.4087,1.4175,1.4182,1.4188,1.4127,1.4234,1.4235,1.4236,1.414,1.4136,1.4132,0,0,0,0,0,0,1.3811,1.3819,1.3901,1.3876,1.3889,1.3978,1.3988,1.4005,1.4019,1.4102,1.4119,1.4075,1.4178,1.4187,1.4175,1.4132,1.4236,1.4237,1.4144,1.4139,1.4134,1.4001,0,0,0,0,0,0,1.3808,1.3817,1.3796,1.3874,1.3889,1.3886,1.3986,1.4005,1.4021,1.4034,1.4103,1.4118,1.4181,1.4172,1.4176,1.4136,1.4238,1.4148,1.4142,1.4136,1.401,1.3992,1.3977,0,0,0,0,0,1.3804,1.3752,1.3794,1.3802,1.3865,1.3883,1.3892,1.3968,1.4017,1.3997,1.405,1.4115,1.4136,1.417,1.4175,1.4135,1.4151,1.4144,1.4136,1.4017,1.3996,1.3978,0,0,0,0,0,0,1.3664,1.3764,1.3812,1.3784,1.3824,1.3906,1.3883,1.3942,1.3968,1.3979,1.407,1.4085,1.4062,1.4097,1.4133,1.4083,1.4154,1.4147,1.4061,1.4042,1.4026,1.4018,1.4239,0,0,0,0,0,1.3631,1.3638,1.3725,1.3692,1.371,1.3792,1.3803,1.3859,1.3903,1.392,1.3973,1.4013,1.4029,1.4037,1.4056,1.4016,1.4034,1.3991,1.3974,1.3961,1.3953,1.3937,1.3919,1.4108,1.4108,1.4108,0,0,1.356,1.3616,1.3615,1.3665,1.3703,1.3708,1.3806,1.3806,1.3811,1.392,1.3914,1.3953,1.4004,1.3978,1.3969,1.4007,1.3906,1.3951,1.3939,1.394,1.3927,1.3909,1.3893,1.4103,1.4104,1.4105,0,0,1.3436,1.3478,1.3457,1.3494,1.3551,1.3607,1.3601,1.3675,1.3707,1.3702,1.3784,1.379,1.3815,1.3849,1.3869,1.3759,1.382,1.3762,1.3677,1.366,1.3645,1.3632,1.3594,1.358,1.3755,1.3755,1.3755,0,1.3341,1.3353,1.3438,1.3435,1.3455,1.3556,1.3535,1.3566,1.3625,1.3636,1.3678,1.3713,1.3754,1.3739,1.3712,1.3725,1.3722,1.3755,1.3641,1.3629,1.3618,1.3583,1.3568,1.3748,1.3748,1.3749,1.375,0,1.3235,1.3242,1.3218,1.3276,1.3293,1.328,1.3362,1.337,1.3424,1.3475,1.3469,1.3523,1.3555,1.3556,1.3607,1.3548,1.357,1.3624,1.3697,1.3591,1.356,1.3547,1.3737,1.374,1.3742,1.3744,0,0,1.3024,1.3131,1.312,1.3149,1.322,1.3227,1.3219,1.3254,1.3258,1.3296,1.3292,1.3312,1.3365,1.3387,1.3444,1.3428,1.334,1.3486,1.3488,1.3458,1.3279,1.3238,1.3221,1.3381,1.3379,1.3377,1.3275,0,1.2913,1.2908,1.2985,1.2958,1.2967,1.3064,1.3058,1.31,1.3148,1.3162,1.3214,1.3228,1.3295,1.331,1.3299,1.3353,1.3305,1.3361,1.3378,1.3378,1.3363,1.3204,1.316,1.3062,1.3264,1.3261,1.326,0,1.2783,1.2817,1.2791,1.2867,1.2873,1.2866,1.2905,1.2916,1.2967,1.3003,1.3029,1.3095,1.3092,1.3161,1.3159,1.3195,1.3207,1.3235,1.3233,1.3237,1.3312,1.3205,1.3032,1.3017,1.3241,1.3243,1.3244,0,1.2634,1.2672,1.2663,1.2684,1.277,1.2763,1.2799,1.2853,1.2869,1.2902,1.2914,1.2945,1.2962,1.2985,1.3057,1.3101,1.3047,1.3122,1.3077,1.3075,1.3061,1.3061,1.2888,1.3067,1.3067,1.3068,1.3068,0,1.2503,1.2483,1.2597,1.2591,1.2573,1.2662,1.2641,1.2686,1.2733,1.2738,1.2823,1.2824,1.292,1.2932,1.2989,1.2979,1.2986,1.3015,1.303,1.3007,1.3004,1.3016,1.3025,1.3064,1.3065,1.3065,1.3066,0,1.2332,1.2408,1.2404,1.2488,1.2508,1.2491,1.2562,1.256,1.2614,1.2618,1.2624,1.2708,1.2728,1.2802,1.2839,1.2877,1.2849,1.2878,1.2832,1.2843,1.2794,1.2798,1.2623,1.2605,1.2794,1.2792,1.2791,0,1.2244,1.2233,1.2315,1.2325,1.2358,1.2372,1.239,1.2477,1.2492,1.255,1.254,1.2567,1.2593,1.2619,1.2683,1.2711,1.2743,1.268,1.2747,1.2726,1.2743,1.2743,1.2743,1.2664,1.2662,1.266,1.2658,0,1.208,1.2119,1.2142,1.2179,1.2199,1.2231,1.2269,1.2271,1.2368,1.238,1.2402,1.2422,1.2462,1.2487,1.2527,1.2562,1.2626,1.2637,1.2628,1.2605,1.258,1.2594,1.2793,1.264,1.2642,1.2643,1.2644,1.2645,1.1949,1.1944,1.2003,1.2026,1.2064,1.2098,1.21,1.2156,1.2176,1.2216,1.2266,1.2281,1.2334,1.2394,1.2425,1.2439,1.2474,1.2461,1.2458,1.2453,1.2443,1.2577,1.2446,1.2446,1.2447,1.2448,1.2448,0,1.1791,1.1834,1.1855,1.1906,1.1925,1.1985,1.203,1.2041,1.2055,1.2099,1.2124,1.215,1.2175,1.2242,1.2274,1.2272,1.2302,1.2277,1.2278,1.2286,1.2409,1.2414,1.2252,1.2252,1.2252,1.2252,1.2252,1.2252,1.1711,1.1706,1.1751,1.1766,1.1809,1.1827,1.1848,1.1879,1.1915,1.1941,1.1964,1.2007,1.2061,1.2098,1.2124,1.2143,1.215,1.2116,1.2144,1.2258,1.2277,1.2295,1.23,1.2117,1.2117,1.2021,1.202,1.2019]}]]